Location: Dub?jovice
(49.7023°N, 15.0515°E)
Time: 04:29:38
(UTC+00:00)

Daily predictions for brighter satellites

Satellite Brightness Start Highest point End
(mag) Time Altitude Azimuth Time Altitude Azimuth Time Altitude Azimuth
CENTAUR R/B 4.1 01:48:26 26° ESE 01:49:00 26° ESE 01:54:28 10° ENE
ADEOS II 4.4 01:47:23 10° N 01:48:30 17° N 01:48:30 17° N
USA 238 DEB 3.9 02:19:35 58° SE 02:19:58 59° SE 02:26:44 10° NE
USA 238 3.9 02:19:39 57° SE 02:20:05 59° ESE 02:26:50 10° NE
NOSS 3-2 (A) 3.6 02:24:30 65° ESE 02:24:30 65° ESE 02:30:43 10° NE
CZ-2C R/B 3.9 02:21:34 10° NNE 02:26:07 33° E 02:27:56 25° SE
Lacrosse 4 Rocket 3.5 02:31:40 22° ESE 02:31:40 22° ESE 02:34:37 10° ENE
Cosmos 1025 Rocket 4.3 02:37:27 38° NE 02:37:27 38° NE 02:40:35 10° NNE
IDEFIX/ARIANE 42P 3.7 02:32:45 10° N 02:35:46 35° N 02:35:46 35° N
USA 234 3.4 02:34:14 10° ENE 02:40:38 59° NNW 02:41:14 56° NW
Cosmos 494 Rocket 4.2 02:42:46 70° ENE 02:42:46 70° ENE 02:47:40 10° NNE
Meteor 1-16 Rocket 4.4 02:37:07 10° N 02:42:25 63° ENE 02:47:40 10° SSE
Geosat 4.5 02:39:23 10° SE 02:44:17 58° NE 02:45:43 42° N
Cosmos 2279 Rocket 3.9 02:43:17 10° N 02:49:32 85° E 02:55:44 10° S
NOSS 3-3 (A) 4.4 02:49:53 59° W 02:50:35 62° SW 02:58:47 10° SSE
NOSS 3-3 (C) 4.4 02:50:05 60° WSW 02:50:41 61° SW 02:58:46 10° SSE
Cosmos 1656 3.7 02:49:55 56° NNW 02:51:11 82° ENE 02:56:53 10° SSE
ADEOS Rocket 2.7 02:49:08 10° SSE 02:54:37 85° ENE 03:00:16 10° NNW
Cosmos 2344 3.4 02:56:53 49° SW 02:59:12 87° NW 03:07:29 10° NE
Lacrosse 5 rocket 3.4 03:00:14 17° SE 03:00:55 17° SE 03:03:27 10° E
COSMOS 2406 4.1 02:59:32 15° S 03:03:57 46° ESE 03:09:21 10° NE
Cosmos 1697 Rocket 3.0 03:03:55 15° NNW 03:08:36 65° ENE 03:14:13 10° SE
Cosmos 1536 Rocket 3.6 03:11:55 62° S 03:12:39 82° E 03:17:10 10° NNE
FENGYUN 3A 4.5 03:18:37 10° NNE 03:23:56 51° E 03:29:12 10° S
NOSS 3-2 (C) 3.3 03:21:46 40° SW 03:24:02 88° NW 03:30:46 10° NE
MSX 4.1 03:20:59 10° N 03:26:24 44° WNW 03:26:51 44° WNW
CBERS 1 LM4 rocket 4.4 03:22:50 10° NNE 03:27:50 81° ESE 03:32:38 10° SSW
CZ-4B R/B 1.7 03:25:10 10° SSE 03:28:37 69° ENE 03:30:17 28° N
Cosmos 44 Rocket 3.5 03:29:13 51° W 03:29:43 53° WSW 03:34:45 10° SSE
Cosmos 1980 Rocket 2.8 03:24:50 10° NNW 03:30:21 54° NE 03:35:50 10° SE
Cosmos 1400 Rocket 4.4 03:27:39 10° N 03:31:19 34° ENE 03:34:55 10° SE
ADEOS II 4.2 03:28:49 10° NNW 03:29:26 12° NNW 03:29:26 12° NNW
PSLV R/B 3.5 03:31:21 10° N 03:35:35 60° WNW 03:36:14 52° WSW
ARIANE 5 R/B 4.1 03:34:00 10° N 03:36:09 18° NNW 03:36:09 18° NNW
CENTAUR R/B 2.5 03:35:39 31° SW 03:38:50 77° NW 03:46:11 10° NE
Cosmos 2360 4.2 03:35:17 10° NNW 03:41:02 87° ENE 03:46:44 10° SSE
Intercosmos 24 3.8 03:37:07 10° N 03:41:17 77° E 03:44:49 10° SSE
SKYMED 2 4.4 03:37:43 10° SE 03:41:55 51° ENE 03:46:09 10° N
ERS-2 2.4 03:44:33 10° S 03:47:30 44° SW 03:47:30 44° SW
Cosmos 1461 4.3 03:45:25 10° SSW 03:49:42 44° ESE 03:54:11 10° NE
KORONAS-FOTON 4.0 03:51:42 43° WSW 03:52:18 47° WNW 03:56:06 10° N
SAR-Lupe-4 3.4 03:50:48 10° SSE 03:54:23 83° WSW 03:58:00 10° NNW
Cosmos 967 Rocket 4.4 03:49:43 13° NW 03:55:31 77° SW 04:01:46 10° SSE
Cosmos 2278 3.7 03:51:00 10° NNW 03:56:42 83° ENE 04:02:21 10° SSE
ALOS 2.2 03:52:26 10° NNE 03:57:08 87° WNW 04:01:49 10° SSW
Cosmos 1092 Rocket 4.2 03:51:19 10° S 03:57:27 72° E 04:03:40 10° NNE
SL-14 R/B 3.4 03:53:57 10° S 03:57:55 78° E 04:01:58 10° NNE
CZ-3 R/B 4.4 03:43:26 11° WSW 04:00:18 26° SSW 04:07:31 10° SE
Cosmos 2322 Rocket 4.0 03:55:39 10° NNW 04:00:35 29° NE 04:05:30 10° ESE
Aureole 3 4.1 03:56:50 10° N 04:00:40 60° E 04:05:30 10° SSE
Nadezhda 4 Rocket 3.9 03:57:49 10° SSW 04:03:54 68° WNW 04:10:03 10° N
CZ-2C R/B 2.9 03:59:45 10° N 04:04:23 37° WNW 04:07:18 19° WSW
Cosmos 1300 2.5 04:01:56 10° NNW 04:05:46 80° W 04:09:34 10° S
Cosmos 1726 Rocket 3.5 04:01:51 10° N 04:06:19 84° W 04:10:46 10° S
ADEOS 3.5 04:01:51 10° NNE 04:07:06 73° WNW 04:12:17 10° SSW
Abrixas rocket 2.2 04:06:51 41° SW 04:07:23 49° SSW 04:10:09 10° ESE
PSLV R/B 4.0 04:04:42 10° SSE 04:08:53 83° ENE 04:13:08 10° NNW
ISS -2.6 04:07:09 17° SSW 04:09:20 40° SSE 04:12:31 10° E
Lacrosse 4 Rocket 1.6 04:08:01 27° WSW 04:09:51 46° NW 04:13:48 10° NNE
Cosmos 1833 Rocket 2.6 04:05:19 10° SSW 04:10:58 77° WNW 04:16:40 10° NNE
USA 238 DEB 4.1 04:07:03 22° W 04:11:11 46° NNW 04:17:55 10° NE
USA 238 4.1 04:07:08 22° W 04:11:16 46° NNW 04:18:01 10° NE
Cosmos 1689 Rocket 1.9 04:08:48 10° SSE 04:11:44 83° W 04:14:41 10° NNW
SAR-Lupe-1 4.1 04:08:32 10° S 04:12:03 56° WSW 04:15:36 10° NNW
Meteor 2-13 Rocket 4.4 04:07:02 10° SSW 04:13:12 81° W 04:19:23 10° N
USA 290 3.0 04:10:33 10° S 04:13:42 55° ESE 04:16:54 10° NNE
Cosmos 1025 Rocket 4.3 04:14:23 21° WNW 04:14:23 21° WNW 04:17:34 10° NNW
NOSS 3-2 (A) 4.1 04:11:54 21° W 04:15:30 40° NNW 04:22:01 10° NE
Cosmos 1484 Rocket 2.9 04:12:01 10° N 04:15:50 51° WNW 04:19:31 10° SSW
Meteor 1-24 Rocket 3.8 04:10:30 10° S 04:16:07 90° W 04:22:01 10° NNE
IDEFIX/ARIANE 42P 4.3 04:14:08 10° NNW 04:16:34 14° NW 04:16:34 14° NW
Cosmos 1674 3.7 04:16:30 24° W 04:16:52 25° WNW 04:20:05 10° NNW
Cosmos 2228 3.2 04:15:09 10° NNW 04:19:20 46° W 04:23:31 10° SSW
Cosmos 2369 3.9 04:14:14 10° NW 04:19:39 47° WSW 04:25:01 10° S
Meteor 2-10 Rocket 4.1 04:15:44 10° N 04:20:42 57° ENE 04:25:40 10° SSE
Cosmos 1606 Rocket 3.8 04:16:58 10° NNW 04:21:18 48° W 04:25:35 10° SSW
CZ-4B R/B 3.0 04:18:47 10° NNE 04:22:46 80° ESE 04:26:56 10° SSW
USA 234 3.8 04:16:55 10° ENE 04:23:06 47° N 04:28:35 14° WNW
ATLAS 3B R/B 2.7 04:18:22 10° SW 04:24:56 80° SE 04:31:38 10° NE
H-2A R/B 4.3 04:22:12 10° NNE 04:25:49 40° E 04:29:26 10° SSE
Cosmos 1626 2.5 04:22:25 10° SSW 04:25:55 40° WNW 04:29:27 10° N
METEOR-M 4.1 04:21:53 10° N 04:27:11 64° WNW 04:32:26 10° SSW
Cosmos 2082 Rocket 2.2 04:23:52 10° SSW 04:29:29 89° ESE 04:35:09 10° NNE
COSMO-SKYMED 1 2.6 04:25:43 10° S 04:29:58 55° W 04:34:16 10° NNW
SL-16 R/B 3.0 04:30:03 10° NNW 04:35:39 54° NE 04:41:12 10° SE
Lacrosse 5 rocket 1.0 04:35:55 10° WSW 04:39:33 82° NNW 04:43:25 10° NE
Meteor 2-5 Rocket 4.0 04:34:06 10° SSW 04:39:36 49° WNW 04:45:17 10° N
Meteor 1-31 Rocket 3.3 04:36:06 10° N 04:39:47 39° WNW 04:43:28 10° SW
Cosmos 2333 Rocket 4.4 04:37:00 10° N 04:41:00 19° NE 04:44:59 10° E
ADEOS Rocket 4.1 04:37:54 10° WSW 04:41:03 15° W 04:44:15 10° NW
ATLAS CENTAUR R/B 4.5 04:39:42 10° SSE 04:41:52 14° ESE 04:43:58 10° E
Meteor PRIRODA 3.6 04:41:39 10° N 04:45:17 64° WNW 04:48:54 10° SSW
CREW DRAGON DEMO-1 DEB 2.7 04:42:58 15° WNW 04:45:24 86° SSW 04:48:25 10° ESE
Meteor 2-8 Rocket 4.4 04:39:39 10° NNW 04:45:48 71° W 04:51:55 10° S
Cosmos 1553 Rocket 4.0 04:40:23 10° N 04:46:34 87° W 04:52:38 10° S
Okean 1-7 Rocket 3.6 04:43:49 10° SSW 04:48:21 72° W 04:52:54 10° N
COSMOS 2406 3.8 04:43:11 10° WSW 04:48:24 37° NW 04:53:39 10° NNE
Cosmos 1428 Rocket 4.5 04:44:04 10° SSW 04:50:16 68° WNW 04:56:28 10° N
deb Chang Zheng 4 4.3 04:46:49 10° N 04:50:33 31° WNW 04:54:17 10° SW
Cosmos 2058 Rocket 3.4 04:46:51 10° NNW 04:51:12 47° W 04:55:29 10° SSW
PSLV R/B 4.2 04:47:44 10° NNE 04:51:53 76° ESE 04:55:59 10° S
Cosmos 1697 Rocket 3.7 04:47:40 10° NW 04:52:05 24° WSW 04:56:30 10° SSW
Spot 2 4.3 04:50:09 10° NNE 04:54:38 84° ESE 04:59:22 10° SSW
Cosmos 1455 2.4 04:51:19 10° N 04:55:12 78° E 04:59:04 10° SSE
Cosmos 2292 Rocket 4.2 04:52:32 10° SSE 04:55:31 46° E 04:59:06 10° NNE
Cosmos 2026 Rocket 4.2 04:55:15 10° SSW 05:01:29 55° WNW 05:07:46 10° N
Cosmos 2360 Rocket 3.4 04:57:31 10° NNW 05:02:53 42° NE 05:08:12 10° ESE
FENGYUN 3A 4.5 04:59:22 10° N 05:04:00 30° WNW 05:08:38 10° WSW
Cosmos 1892 Rocket 4.1 05:01:17 10° SW 05:05:18 36° WNW 05:09:22 10° N
Cosmos 1400 Rocket 4.0 05:04:30 10° NW 05:07:36 22° W 05:10:39 10° SW
Cosmos 2084 3.6 05:05:24 10° SW 05:09:44 84° SE 05:14:11 10° NE
H-2A R/B 2.6 05:05:35 10° NNE 05:10:03 90° NW 05:14:21 10° SSW
SMAP 4.2 05:06:02 10° NNE 05:10:36 52° E 05:15:08 10° S
